Macon, GA

11:25 PM EDT on September 24, 2016 (GMT -0400)
Middle Georgia Regional

Weather History for KMCN - October, 2013

Change the Weather History Date:

Saturday, October 19, 2013

  Actual Average Record
Temperature  
Mean Temperature 65 °F 64 °F  
Max Temperature 72 °F 77 °F 89 °F (1926)
Min Temperature 58 °F 51 °F 35 °F (1948)
Degree Days  
Heating Degree Days 0 3  
Month to date heating degree days 0 39  
Since 1 July heating degree days 0 45  
Cooling Degree Days 0 2  
Month to date cooling degree days 75 74  
Year to date cooling degree days 1840 2124  
Growing Degree Days 16 (Base 50)    
Moisture  
Dew Point 57 °F    
Average Humidity 75    
Maximum Humidity 97    
Minimum Humidity 53    
Precipitation  
Precipitation 0.01 in 0.08 in 1.74 in (1950)
Month to date precipitation 0.51 1.78  
Year to date precipitation 60.41 37.31  
Sea Level Pressure  
Sea Level Pressure 29.96 in    
Wind  
Wind Speed 4 mph (WNW)    
Max Wind Speed 13 mph    
Max Gust Speed 18 mph    
Visibility 10 miles    
Events      
T = Trace of Precipitation, MM = Missing Value Source: NWS Daily Summary

Daily Weather History Graph

Daily Weather History Graph

Search for Another Location

Airport or City:

Trip Planner

Search our weather history database for the weather conditions in past years. The results will help you decide how hot, cold, wet, or windy it might be!

Date:

Astronomy

Oct. 19, 2013 Rise Set
Actual Time 7:41 AM EDT 6:56 PM EDT
Civil Twilight 7:16 AM EDT 7:21 PM EDT
Nautical Twilight 6:48 AM EDT 7:50 PM EDT
Astronomical Twilight 6:19 AM EDT 8:18 PM EDT
Moon 7:27 PM EDT (10/19) 8:15 AM EDT (10/19)
Length of Visible Light 12h 04m
Length of Day
11h 14m
Waxing Gibbous, 99% of the Moon is Illuminated
Oct 19
Waxing Gibbous
Oct 26
Last Quarter
Nov 3
New
Nov 10
First Quarter
Nov 17
Full

Hourly Weather History & Observations

Time (EDT) Temp. Dew Point Humidity Pressure Visibility Wind Dir Wind Speed Gust Speed Precip Events Conditions
12:02 AM 64.4 °F 62.6 °F 94% 29.98 in 10.0 mi West 3.5 mph - N/A   Mostly Cloudy
12:53 AM 64.9 °F 63.0 °F 93% 29.95 in 10.0 mi Calm Calm - N/A   Overcast
1:53 AM 64.9 °F 61.0 °F 87% 29.95 in 10.0 mi WNW 3.5 mph - N/A   Overcast
2:53 AM 64.9 °F 55.9 °F 73% 29.96 in 10.0 mi Calm Calm - 0.01 in   Overcast
3:41 AM 64.4 °F 55.4 °F 73% 29.96 in 10.0 mi Calm Calm - N/A   Mostly Cloudy
3:53 AM 64.0 °F 55.9 °F 75% 29.94 in 10.0 mi Calm Calm - N/A   Mostly Cloudy
4:53 AM 62.1 °F 57.9 °F 86% 29.94 in 10.0 mi Calm Calm - N/A   Clear
5:53 AM 61.0 °F 59.0 °F 93% 29.94 in 10.0 mi Calm Calm - N/A   Clear
6:53 AM 60.1 °F 57.9 °F 93% 29.95 in 10.0 mi Calm Calm - N/A   Partly Cloudy
7:53 AM 60.1 °F 57.0 °F 90% 29.95 in 10.0 mi NW 3.5 mph - N/A   Partly Cloudy
8:53 AM 62.1 °F 59.0 °F 90% 29.97 in 10.0 mi West 3.5 mph - N/A   Mostly Cloudy
9:53 AM 66.0 °F 55.0 °F 68% 29.98 in 10.0 mi NNW 3.5 mph - N/A   Scattered Clouds
10:53 AM 66.9 °F 54.0 °F 63% 29.96 in 10.0 mi Calm Calm - N/A   Mostly Cloudy
11:53 AM 68.0 °F 55.9 °F 65% 29.99 in 10.0 mi West 5.8 mph - N/A   Mostly Cloudy
12:53 PM 71.1 °F 54.0 °F 55% 29.98 in 10.0 mi West 6.9 mph - N/A   Scattered Clouds
1:53 PM 71.1 °F 55.0 °F 57% 29.96 in 10.0 mi West 8.1 mph - N/A   Partly Cloudy
2:53 PM 72.0 °F 54.0 °F 53% 29.93 in 10.0 mi West 8.1 mph - N/A   Clear
3:53 PM 70.0 °F 54.0 °F 57% 29.93 in 10.0 mi WNW 5.8 mph - N/A   Mostly Cloudy
4:53 PM 66.0 °F 53.1 °F 63% 29.94 in 10.0 mi NW 8.1 mph - 0.00 in   Overcast
5:53 PM 64.9 °F 54.0 °F 68% 29.94 in 10.0 mi NNW 11.5 mph - N/A   Mostly Cloudy
6:53 PM 63.0 °F 55.9 °F 78% 29.96 in 10.0 mi NW 6.9 mph - N/A   Partly Cloudy
7:53 PM 63.0 °F 57.9 °F 84% 29.96 in 10.0 mi NW 4.6 mph - N/A   Overcast
8:53 PM 63.0 °F 57.0 °F 81% 29.96 in 10.0 mi NW 3.5 mph - N/A   Overcast
9:53 PM 62.1 °F 57.0 °F 84% 29.96 in 10.0 mi NW 3.5 mph - N/A   Overcast
10:53 PM 61.0 °F 57.0 °F 87% 29.96 in 10.0 mi West 3.5 mph - N/A   Overcast
11:53 PM 60.1 °F 57.0 °F 90% 29.97 in 10.0 mi WNW 3.5 mph - N/A   Mostly Cloudy